Location: St. Louis
(38.6270°N, 90.1994°W)
Time: 04:53:06
(UTC-06:00)

A-11 Canister half - Pass Details

Date: 08 December 2021
Orbit: 1524 x 1684 km, 47.3° (Epoch: 22 January)

Event Time Altitude Azimuth Distance (km) Brightness Sun altitude
Exits shadow 01:55:01 19° 58° (ENE) 3,231 10.9 -59.5°
Drops below altitude 10° 01:57:21 10° 62° (ENE) 3,909 11.4 -59.1°
Sets 02:00:33 0° 66° (ENE) 4,880 12.1 -58.5°
